Regional Weather Roundup
Issued by NWS

Home | Current Version | Previous Version | Graphics & Text | Print | Product List | Glossary On
Versions: 1 2 3 4 5 6 7 8 9 10 11 12 13 14 15 16 17 18 19 20 21 22 23 24 25 26 27 28 29 30 31 32 33 34 35 36 37 38 39 40 41 42 43 44 45 46 47 48 49 50
000
ASUS45 KBOI 101810
RWRID

IDAHO REGIONAL WEATHER ROUNDUP
NATIONAL WEATHER SERVICE BOISE ID
1100 AM MST WED FEB 10 2016

NOTE: "FAIR" INDICATES FEW OR NO CLOUDS BELOW 12000 FEET
WITH NO SIGNIFICANT WEATHER AND/OR OBSTRUCTIONS TO VISIBILITY

IDZ012-014-101900-
SOUTHWEST IDAHO


CITY           SKY/WX    TMP DP  RH WIND       PRES   REMARKS
BOISE          CLOUDY    30  28  93 CALM      30.47F FOG
CALDWELL         N/A     30  28  93 E5        30.51R FOG     WCI  25
MOUNTAIN HOME  PTSUNNY   32  28  86 E5        30.45F FOG     WCI  27
$$

IDZ016-017-101900-
SOUTHCENTRAL IDAHO


CITY           SKY/WX    TMP DP  RH WIND       PRES   REMARKS
BURLEY         MOSUNNY   33  28  81 CALM      30.41R
JEROME         SUNNY     29  22  75 E14       30.40F WCI  18
TWIN FALLS     SUNNY     31  29  92 E7        30.40F WCI  24
$$

IDZ019>023-101900-
SOUTHEAST IDAHO


CITY           SKY/WX    TMP DP  RH WIND       PRES   REMARKS
IDAHO FALLS    CLOUDY    18  16  92 N7        30.45R WCI   9
POCATELLO      CLOUDY    26  22  84 CALM      30.45R
REXBURG        CLOUDY    20  14  77 CALM      30.43S
$$

IDZ006-010-011-018-031-032-101900-
CENTRAL IDAHO MOUNTAINS


CITY           SKY/WX    TMP DP  RH WIND       PRES   REMARKS
MCCALL         SUNNY     25  23  92 CALM      30.37F
HAILEY         MOSUNNY   30  18  59 W5        30.42R WCI  25
STANLEY          N/A     11   6  81 CALM      30.42S
SALMON         CLOUDY    14  12  92 CALM      30.47F VSB 3/4
CHALLIS        CLOUDY    14  13  95 CALM      30.41F FOG
$$

IDZ002-004-006-007-026-101900-
NORTHERN IDAHO


CITY           SKY/WX    TMP DP  RH WIND       PRES   REMARKS
LEWISTON       PTSUNNY   46  32  58 S12       30.29R
LOWELL           N/A     40  32  73 N6        30.38S
COEUR D`ALENE  CLOUDY    34  30  86 NE7       30.26R VSB 1/2 WCI  28
MULLAN PASS    SUNNY     40  27  59 VRB5      30.25R
$$



USA.gov is the U.S. government's official web portal to all federal, state and local government web resources and services.